Voltar ao catálogo

SL-14 DEB

AtivoPO
NORAD 45316·DEBRIS·🇷🇺 Russia

Lançado Aug 15, 1991 de Plesetsk Cosmodrome

Loading…

Próximas Passagens (próximas 24 horas)

TLE

AtualizadoSource: Space-Track

Época: Sep 14, 2026, 09:09 UTC

1 45316U 91056BE  26257.38152536  .00001009  00000-0  19615-2 0  9999
2 45316  82.5949  47.4950 0106285 109.7407 251.5226 13.33401595318938

Acompanhe SL-14 DEB em tempo real com AllMySat

Download on the App Store